STARLINK-33949

Satellite information

Favourite Embed

Satellite Type and Status

PAYLOADIN ORBIT

Key statistics

Satellite STARLINK-33949 at a glance.

Uptime

204

Days in orbit

Revolutions

≈ 15.3

Per day

Orbit

LEO

Low Earth Orbit

Inclination

53.2

Latest

Satellite identification and parameters

Extended collection of information and parameters for STARLINK-33949.

Object identification

Identified? True

Debris? False

Object name: STARLINK-33949

International designator: 2025-110K

Object number (NORAD): 64105

Object ID (CCSDS): 64105

Country: UNITED STATES OF AMERICA (US)

Current information (Y/N): Y

RCS size: LARGE

Orbital parameters

Period: 94.107 minutes

Inclination: 53.1585 deg

SMA: 6853.414 km

Apoapsis: 475.897 km

Periapsis: 474.662 km

RAAN: 73.0787 deg

Eccentricy: 0.00009006

Argument of periapsis: 92.8748 deg

Mean anomaly: 267.2356 deg

Mean motion: 15.30179172 rev/day

Mean motion (dot): 0.00053111 rev/day2

B* drag term: 0.0017937149 1/REarth

Two-line elements (TLE)

Creation date: Dec. 12, 2025, 10:14 a.m.

Reference frame: TEME

Reference center: EARTH

Epoch: Dec. 12, 2025, 6:14 a.m. UTC

TLE line 0: 0 STARLINK-33949

TLE line 1: 1 64105U 25110K 25346.26000030 .00053111 00000-0 17937-2 0 9996

TLE line 2: 2 64105 53.1585 73.0787 0000901 92.8748 267.2356 15.30179172 32490

Live tracking on map

Real-time ground track for satellite STARLINK-33949.

In-orbit conjunctions

There are no conjunctions computed for STARLINK-33949, at the moment. Check back to stay up to date, as we update our databases every day.

Go to all conjunctions

Associated space launch

A batch of 27 satellites for the Starlink mega-constellation - SpaceX's project for space-based Internet communication system.

STARLINK-33949 was lifted into orbit during the mission ‘Falcon 9 Block 5 | Starlink Group 11-16’, on board a Falcon 9 space rocket.

The launch took place on May 23, 2025, 10:32 p.m. from Space Launch Complex 4E.

For more information about the launch, click the button.

Launch to space Falcon 9 Block 5 | Starlink Group 11-16
Falcon 9 Block 5 | Starlink Group 11-16

Agency: SpaceX

Status: Launch Successful

Launch date: May 23, 2025, 10:32 p.m. UTC

Rocket: Falcon 9

Launch pad: Space Launch Complex 4E

Location: Vandenberg SFB, CA, USA

...

Latest news about this satellite

News about space launch
Launch Roundup: SpaceX to start new Starlink shell; China, Russia to launch unknown payloads

This week, SpaceX will begin building a new shell for its Starlink constellation, launching from… The post Launch Roundup: SpaceX to start new Starlink shell; China, Russia to launch unknown payloads appeared first on NASASpaceFlight.com.


Newsletter sign-up

Weekly statistics, charts and insights to help you stay on top of the space industry.